Location: Ermatingen
(47.6706°N, 9.0857°E)
Time: 06:32:08
(UTC+00:00)

Lacrosse 4 Rocket - Pass Details

Date: 18 September 2020
Orbit: 543 x 615 km, 68.0° (Epoch: 27 October)

Event Time Altitude Azimuth Distance (km) Brightness Sun altitude
Rises 20:58:43 0° 332° (NNW) 2,716 5.9 -32.3°
Reaches altitude 10° 21:01:00 10° 339° (NNW) 1,823 4.7 -32.6°
Enters shadow 21:02:07 17° 346° (NNW) 1,411 4.0 -32.7°
